Torna al catalogo

TANSEI 3 DEB

AttivoUNKNOWN
NORAD 19314·DEBRIS·🇯🇵 Japan

Lanciato Feb 19, 1977 da Uchinoura Space Center

Loading…

Prossimi Passaggi (prossime 24 ore)

TLE

AggiornatoSource: Space-Track

Epoca: Sep 8, 2026, 02:47 UTC

1 19314U 77012L   26251.11606117 -.00000053  00000-0 -13357-4 0  9997
2 19314  65.3684 182.3178 1865633 305.1878  38.7941 10.85849607578107

Traccia TANSEI 3 DEB in tempo reale con AllMySat

Download on the App Store